[[{"header":{"parameterUnit":"m.s-1","parameterCategory":1,"la1":30.2991,"la2":30.254,"lo1":-89.0895,"lo2":-89.0444,"dy":0.0017,"dx":0.0017,"nx":28,"ny":28,"refTime":"2025-08-30T21:00:00:Z","depth":0,"parameterNumber":2,"parameterNumberName":"U-component_of_WINDS"},"data":[0,0,0,0,0,0,0,0,0,0,0,0,0,0,0,0,0,0,0,0,0,0,0,0,0,0,0,0,0,0,0,0,0,0,0,0,0,0,0,0,0,0,0,0,0,0,0,0,0,0,0,0,0,0,0,0,0,0,-2.8775,-2.8777,0,-2.8962,-2.8964,-2.8966,-2.8925,-2.8921,-2.8918,-2.8914,-2.911,-2.9118,-2.9126,0,0,0,0,0,0,0,0,0,0,0,0,0,-2.8387,-2.8394,-2.8775,-2.8778,-2.878,-2.8962,-2.8964,-2.8967,-2.8925,-2.8921,-2.8917,-2.8913,-2.9107,-2.9117,-2.9127,0,0,0,0,0,0,0,0,0,0,0,0,0,-2.8563,-2.8397,-2.8775,-2.8781,-2.8783,-2.8961,-2.8965,-2.8968,-2.8926,-2.8921,-2.8916,-2.8911,-2.9103,-2.9116,-2.9128,-2.9313,0,0,-2.9167,-2.9173,0,0,0,0,0,0,0,0,-2.8553,-2.8577,-2.8778,-2.8781,-2.8784,-2.8915,-2.8899,-2.9084,-2.8928,-2.8872,-2.8914,-2.8908,-2.9049,-2.9066,-2.9113,-2.9322,-2.933,-2.9168,-2.9176,-2.9182,-2.9185,0,0,0,0,0,0,0,-2.8541,-2.8569,-2.8849,-2.8781,-2.8785,-2.8776,-2.8795,-2.8934,-2.8988,-2.8877,-2.8874,-2.8896,-2.905,-2.9101,-2.9117,-2.9333,-2.9168,-2.9179,-2.9187,-2.9192,-2.9706,-2.9712,0,0,0,0,0,0,-2.8525,-2.8559,-2.8843,-2.8855,-2.8653,-2.8787,-2.8809,-2.8878,-2.8987,-2.8998,-2.8901,-2.8894,-2.9082,-2.9102,-2.9124,-2.935,-2.9181,-2.9193,-2.9201,-2.9701,-2.9708,-2.9714,0,0,0,0,0,0,-2.8517,-2.8551,-2.8836,-2.8706,-2.8742,-2.8799,-2.8878,-2.8885,-2.8935,-2.9005,-2.9015,-2.8942,-2.9078,-2.9106,-2.9267,-2.9356,-2.9199,-2.9211,-2.9693,-2.9703,-2.9711,-2.9801,0,0,0,0,0,0,-2.8506,-2.8548,-2.8618,-2.8708,-2.8749,-2.8975,-2.8883,-2.8892,-2.8957,-2.895,-2.9047,-2.9058,-2.9076,-2.9248,-2.9279,-2.937,-2.9221,-2.9686,-2.9698,-2.9708,-2.9791,-2.9812,-2.9831,0,0,0,0,0,-2.8493,-2.8636,-2.8622,-2.8656,-2.8837,-2.898,-2.9003,-2.902,-2.8964,-2.9036,-2.9081,-2.9055,-2.934,-2.9265,-2.93,-2.9396,-2.968,-2.9694,-2.9707,-2.9782,-2.9808,-2.983,0,0,0,0,0,0,-2.8556,-2.8648,-2.8633,-2.881,-2.8887,-2.8972,-2.9063,-2.9047,-2.9143,-2.9132,-2.9151,-2.9173,-2.9338,-2.9382,-2.9297,-2.9582,-2.9502,-2.9524,-2.9547,-2.9573,-2.9592,-2.9579,-2.9231,0,0,0,0,0,-2.859,-2.8697,-2.8772,-2.8921,-2.896,-2.9005,-2.9068,-2.9074,-2.9156,-2.9189,-2.9245,-2.9326,-2.9434,-2.9505,-2.9609,-2.9796,-2.9818,-2.988,-2.9899,-2.9916,-2.9935,-3.004,-3.0069,-2.9759,-2.9759,-2.9758,0,0,-2.8663,-2.8727,-2.8793,-2.8936,-2.8996,-2.9108,-2.9033,-2.9154,-2.9238,-2.9207,-2.9363,-2.9407,-2.9499,-2.9675,-2.9755,-2.9717,-3.0025,-2.9933,-2.9945,-2.9956,-3.0057,-3.0086,-3.0112,-2.9768,-2.9766,-2.9765,0,0,-2.8853,-2.8911,-2.9042,-2.9105,-2.9197,-2.9226,-2.9257,-2.9345,-2.9374,-2.953,-2.951,-2.961,-2.9795,-2.9863,-2.9921,-3.0138,-3.0118,-3.0171,-3.0276,-3.0379,-3.0403,-3.0425,-3.0505,-3.0533,-3.0189,-3.0189,-3.0189,0,-2.8932,-2.9099,-2.9112,-2.9236,-2.9301,-2.9277,-2.9412,-2.9471,-2.9594,-2.964,-2.9595,-2.9828,-2.9888,-3.0081,-3.0133,-3.018,-3.0219,-3.0161,-3.0398,-3.042,-3.0441,-3.0518,-3.0548,-3.0195,-3.0194,-3.0194,-3.0193,0,-2.9193,-2.9309,-2.9405,-2.9523,-2.9597,-2.9726,-2.9761,-2.9835,-2.9835,-2.987,-3.003,-3.0101,-3.022,-3.0265,-3.0266,-3.0459,-3.0433,-3.0393,-3.0314,-3.0476,-3.0549,-3.0578,-3.0204,-3.0201,-3.02,-3.0198,0,0,-2.943,-2.9553,-2.9589,-2.9643,-2.9743,-2.9834,-2.9963,-3.0077,-3.0142,-3.0227,-3.0337,-3.0495,-3.0459,-3.0526,-3.0535,-3.0624,-3.0795,-3.0574,-3.0576,-3.0615,-3.1014,-3.1045,-3.1079,-3.0781,-3.0787,-3.0791,-3.1008,0,-2.9631,-2.9856,-2.9873,-3.0077,-3.0186,-3.0165,-3.0277,-3.0352,-3.0388,-3.0486,-3.0526,-3.0639,-3.0581,-3.0622,-3.0709,-3.0755,-3.0876,-3.074,-3.0887,-3.0892,-3.0867,-3.1116,-3.1149,-3.135,-3.1036,-3.104,-3.1044,0,-2.9896,-2.9989,-3.0204,-3.0291,-3.0338,-3.0438,-3.0546,-3.0639,-3.0725,-3.0744,-3.0819,-3.0816,-3.095,-3.0864,-3.1051,-3.0958,-3.1019,-3.1051,-3.1059,-3.1076,-3.098,-3.1143,-3.1414,-3.1445,-3.1088,-3.1085,-3.1081,0,-3.0051,-3.0229,-3.0382,-3.0429,-3.0533,-3.0605,-3.0652,-3.0732,-3.08,-3.0895,-3.094,-3.1049,-3.1109,-3.1194,-3.1222,-3.1156,-3.1409,-3.1324,-3.1431,-3.1431,-3.1487,-3.1484,-3.1775,-3.1522,-3.1521,-3.1521,-3.152,0,-3.0276,-3.0409,-3.0453,-3.0547,-3.0696,-3.0714,-3.0862,-3.0905,-3.0977,-3.108,-3.1068,-3.1166,-3.1194,-3.1298,-3.132,-3.1473,-3.15,-3.1521,-3.1526,-3.1524,-3.1522,-3.1566,-3.1554,-3.1529,-3.1527,-3.1525,-3.1524,0,-3.0475,-3.0509,-3.0674,-3.076,-3.0784,-3.0891,-3.0965,-3.1057,-3.109,-3.1221,-3.1253,-3.1307,-3.1428,-3.1463,-3.1608,-3.1623,-3.1804,-3.1794,-3.1775,-3.1776,-3.1882,-3.1872,-3.2214,-3.2261,-3.1974,-3.1977,-3.1979,0,-3.0617,-3.0719,-3.0816,-3.0884,-3.0934,-3.1043,-3.1113,-3.1135,-3.1209,-3.1315,-3.1394,-3.1514,-3.1611,-3.1806,-3.1859,-3.1971,-3.1966,-3.2078,-3.1983,-3.1978,-3.1971,-3.1966,-3.1977,-3.2097,-3.21,-3.2102,-3.2104,0,-3.0868,-3.088,-3.098,-3.1088,-3.1172,-3.1258,-3.1341,-3.1397,-3.1431,-3.1515,-3.1639,-3.1714,-3.1863,-3.1983,-3.2096,-3.2146,-3.2133,-3.2133,-3.2164,-3.2165,-3.215,-3.2163,-3.1827,-3.2126,-3.2124,-3.2122,-3.2121,-3.212,-3.1045,-3.1135,-3.1218,-3.1331,-3.1395,-3.1473,-3.1564,-3.1609,-3.1712,-3.1834,-3.1841,-3.1976,-3.206,-3.2211,-3.2268,-3.2375,-3.2342,-3.2387,-3.2398,-3.241,-3.242,-3.2131,-3.2395,-3.2395,-3.2394,-3.2394,-3.2393,0,-3.1297,-3.1349,-3.1453,-3.1569,-3.1659,-3.1635,-3.1726,-3.1803,-3.1922,-3.2001,-3.2097,-3.224,-3.2356,-3.2418,-3.2535,-3.2609,-3.2606,-3.2639,-3.2635,-3.2648,-3.2441,-3.2404,-3.264,-3.264,-3.264,-3.264,-3.264,-3.264,-3.1439,-3.1592,-3.1614,-3.1799,-3.1851,-3.1982,-3.2036,-3.2109,-3.2172,-3.2333,-3.2429,-3.2468,-3.2542,-3.2663,-3.277,-3.2785,-3.283,-3.2868,-3.288,-3.2687,-3.2662,-3.2638,-3.2603,-3.2877,-3.2877,-3.3078,-3.308,-3.3081]},{"header":{"parameterUnit":"m.s-1","parameterCategory":1,"la1":30.2991,"la2":30.254,"lo1":-89.0895,"lo2":-89.0444,"dy":0.0017,"dx":0.0017,"nx":28,"ny":28,"refTime":"2025-08-30T21:00:00:Z","depth":0,"parameterNumber":3,"parameterNumberName":"V-component_of_WINDS"},"data":[0,0,0,0,0,0,0,0,0,0,0,0,0,0,0,0,0,0,0,0,0,0,0,0,0,0,0,0,0,0,0,0,0,0,0,0,0,0,0,0,0,0,0,0,0,0,0,0,0,0,0,0,0,0,0,0,0,0,-3.464,-3.464,0,-3.4634,-3.4634,-3.4634,-3.4562,-3.4561,-3.4559,-3.4557,-3.4552,-3.4553,-3.4555,0,0,0,0,0,0,0,0,0,0,0,0,0,-3.4589,-3.459,-3.464,-3.464,-3.4639,-3.4634,-3.4634,-3.4634,-3.4563,-3.4561,-3.4558,-3.4556,-3.4551,-3.4553,-3.4555,0,0,0,0,0,0,0,0,0,0,0,0,0,-3.46,-3.4591,-3.464,-3.4603,-3.46,-3.4634,-3.4634,-3.4634,-3.4563,-3.456,-3.4558,-3.4555,-3.4551,-3.4553,-3.4555,-3.4623,0,0,-3.4562,-3.4563,0,0,0,0,0,0,0,0,-3.4599,-3.4602,-3.4609,-3.4606,-3.4602,-3.4596,-3.4614,-3.463,-3.4564,-3.4577,-3.4557,-3.4554,-3.4569,-3.4569,-3.4574,-3.4623,-3.4623,-3.4562,-3.4564,-3.4565,-3.4565,0,0,0,0,0,0,0,-3.4599,-3.4602,-3.4637,-3.4609,-3.4605,-3.4587,-3.4586,-3.4617,-3.4588,-3.4576,-3.4571,-3.4571,-3.4566,-3.4572,-3.4574,-3.4623,-3.4562,-3.4564,-3.4566,-3.4567,-3.4726,-3.4728,0,0,0,0,0,0,-3.4603,-3.4602,-3.4637,-3.4637,-3.4594,-3.459,-3.4589,-3.4601,-3.4588,-3.4583,-3.4573,-3.4568,-3.457,-3.4571,-3.4573,-3.4651,-3.4565,-3.4567,-3.4568,-3.4723,-3.4726,-3.4729,0,0,0,0,0,0,-3.4602,-3.4607,-3.4638,-3.4618,-3.462,-3.4594,-3.4608,-3.4602,-3.4608,-3.4586,-3.458,-3.4584,-3.4567,-3.457,-3.4611,-3.465,-3.4568,-3.457,-3.472,-3.4724,-3.4728,-3.4808,0,0,0,0,0,0,-3.4601,-3.4607,-3.4633,-3.4619,-3.4622,-3.4676,-3.4611,-3.4604,-3.4612,-3.4604,-3.4595,-3.459,-3.4566,-3.4608,-3.4613,-3.4651,-3.4572,-3.4716,-3.4722,-3.4727,-3.4802,-3.4815,-3.4826,0,0,0,0,0,-3.4599,-3.4656,-3.4634,-3.4639,-3.4653,-3.4678,-3.468,-3.465,-3.4615,-3.4641,-3.4626,-3.4591,-3.4645,-3.4613,-3.4618,-3.4658,-3.4713,-3.472,-3.4726,-3.4797,-3.4812,-3.4825,0,0,0,0,0,0,-3.4676,-3.4654,-3.4629,-3.4683,-3.4683,-3.4666,-3.4698,-3.4668,-3.4678,-3.467,-3.4633,-3.4631,-3.4678,-3.4672,-3.4637,-3.4722,-3.4673,-3.4681,-3.4725,-3.4739,-3.4751,-3.4751,-3.4574,0,0,0,0,0,-3.4699,-3.4721,-3.47,-3.475,-3.4751,-3.4725,-3.4734,-3.4711,-3.471,-3.4709,-3.4698,-3.4698,-3.4715,-3.4727,-3.4741,-3.4801,-3.4797,-3.4831,-3.4842,-3.4852,-3.4859,-3.4889,-3.4904,-3.4751,-3.475,-3.475,0,0,-3.4747,-3.4737,-3.4754,-3.4765,-3.4762,-3.4785,-3.4725,-3.4753,-3.4769,-3.4713,-3.4751,-3.4743,-3.474,-3.4791,-3.4813,-3.4787,-3.4901,-3.486,-3.4868,-3.487,-3.4898,-3.4912,-3.4925,-3.4755,-3.4754,-3.4753,0,0,-3.4846,-3.4841,-3.4881,-3.4879,-3.4876,-3.4857,-3.4867,-3.4855,-3.4847,-3.4884,-3.4842,-3.4862,-3.4892,-3.4891,-3.4895,-3.4993,-3.496,-3.4999,-3.506,-3.509,-3.5102,-3.5113,-3.5147,-3.516,-3.5006,-3.5006,-3.5006,0,-3.4906,-3.4939,-3.4906,-3.4936,-3.4941,-3.4891,-3.4931,-3.4931,-3.4933,-3.4938,-3.4909,-3.4945,-3.494,-3.4989,-3.5013,-3.5018,-3.5028,-3.5,-3.5103,-3.5114,-3.5123,-3.5155,-3.5168,-3.5011,-3.501,-3.501,-3.5009,0,-3.5013,-3.5037,-3.5069,-3.5071,-3.5081,-3.5116,-3.5087,-3.5101,-3.5077,-3.5062,-3.51,-3.5092,-3.5103,-3.5113,-3.509,-3.5159,-3.5143,-3.511,-3.5059,-3.5143,-3.5172,-3.5184,-3.5018,-3.5016,-3.5015,-3.5013,0,0,-3.516,-3.5142,-3.5155,-3.5154,-3.5146,-3.5164,-3.5196,-3.5207,-3.5219,-3.5221,-3.5247,-3.5273,-3.5242,-3.5246,-3.5223,-3.5249,-3.5326,-3.5212,-3.5211,-3.5233,-3.54,-3.5425,-3.544,-3.5304,-3.5307,-3.5308,-3.54,0,-3.5255,-3.5309,-3.5279,-3.5337,-3.5358,-3.531,-3.5338,-3.5336,-3.5323,-3.5339,-3.5324,-3.5343,-3.53,-3.5302,-3.5326,-3.5312,-3.5359,-3.5305,-3.5328,-3.5329,-3.5329,-3.5455,-3.5482,-3.5569,-3.5412,-3.5414,-3.5415,0,-3.5373,-3.5379,-3.5439,-3.5426,-3.5433,-3.5459,-3.5466,-3.5482,-3.5478,-3.5466,-3.5471,-3.5441,-3.5471,-3.5422,-3.5463,-3.5427,-3.5434,-3.5429,-3.5431,-3.5432,-3.5377,-3.5459,-3.5596,-3.5609,-3.5433,-3.5432,-3.543,0,-3.5473,-3.5497,-3.5536,-3.5537,-3.5523,-3.5541,-3.5536,-3.553,-3.5538,-3.5544,-3.5548,-3.5558,-3.5564,-3.5572,-3.5545,-3.5512,-3.559,-3.5538,-3.5581,-3.5582,-3.5599,-3.5598,-3.5739,-3.5605,-3.5605,-3.5605,-3.5605,0,-3.5582,-3.562,-3.558,-3.5604,-3.5645,-3.5611,-3.5653,-3.5642,-3.5637,-3.5658,-3.5617,-3.5638,-3.5601,-3.5618,-3.5597,-3.5634,-3.5637,-3.5628,-3.5622,-3.5632,-3.5633,-3.5636,-3.5629,-3.5608,-3.5608,-3.5607,-3.5606,0,-3.5701,-3.5676,-3.5715,-3.5697,-3.5694,-3.5725,-3.571,-3.5731,-3.5714,-3.5741,-3.5745,-3.572,-3.5737,-3.5711,-3.5726,-3.5712,-3.5763,-3.5748,-3.5764,-3.5759,-3.5803,-3.5799,-3.595,-3.5968,-3.5824,-3.5825,-3.5826,0,-3.5772,-3.58,-3.5785,-3.5796,-3.5793,-3.5811,-3.5818,-3.5785,-3.5794,-3.5792,-3.5813,-3.5827,-3.5836,-3.5866,-3.5849,-3.586,-3.5845,-3.5897,-3.5846,-3.5854,-3.5845,-3.5843,-3.5845,-3.5907,-3.5909,-3.5911,-3.5912,0,-3.59,-3.5886,-3.5898,-3.5905,-3.5915,-3.592,-3.5921,-3.5932,-3.5897,-3.591,-3.5927,-3.5934,-3.5949,-3.5963,-3.5969,-3.5964,-3.5932,-3.5928,-3.5938,-3.5948,-3.5955,-3.5951,-3.5792,-3.5924,-3.5923,-3.5922,-3.5922,-3.5921,-3.5996,-3.6018,-3.6011,-3.6026,-3.6023,-3.6025,-3.6044,-3.6029,-3.6042,-3.6051,-3.6031,-3.6053,-3.6047,-3.6052,-3.6051,-3.6067,-3.6044,-3.606,-3.6063,-3.6067,-3.6074,-3.5953,-3.6068,-3.6068,-3.6068,-3.6067,-3.6067,0,-3.6121,-3.6114,-3.6127,-3.613,-3.6142,-3.611,-3.611,-3.6121,-3.6141,-3.6138,-3.6148,-3.6167,-3.618,-3.6164,-3.6174,-3.6191,-3.6176,-3.6194,-3.6193,-3.6192,-3.6094,-3.6084,-3.6206,-3.6206,-3.6206,-3.6206,-3.6206,-3.6206,-3.6188,-3.6223,-3.6208,-3.6242,-3.6234,-3.6254,-3.6257,-3.6258,-3.6256,-3.6279,-3.6289,-3.6278,-3.627,-3.6279,-3.629,-3.6285,-3.629,-3.6314,-3.6303,-3.6212,-3.6199,-3.6186,-3.6176,-3.6315,-3.6315,-3.6399,-3.64,-3.6401]}]]